カタログに戻る

FENGYUN 1C DEB

運用中SSO
NORAD 30849·DEBRIS·🇨🇳 China

打ち上げ May 10, 1999 から Taiyuan Satellite Launch Center

Loading…

次のパス (今後24時間)

TLE

最新Source: Space-Track

元期: Sep 12, 2026, 16:36 UTC

1 30849U 99025AWK 26255.69175648  .00001456  00000-0  69628-3 0  9995
2 30849  99.0294 326.2673 0046759 304.4107 207.8494 14.20175676  2531

AllMySatでFENGYUN 1C DEBをリアルタイム追跡

Download on the App Store